Tracking 23764 objects as of 17-Oct-2021
HD Live streaming from Space Station
objects crossing your sky now

STARLINK-3059

Track STARLINK-3059 now!
10-day predictions
STARLINK-3059 is classified as:


NORAD ID: 49181
Int'l Code: 2021-082BD
Perigee: 364.2 km
Apogee: 369.6 km
Inclination: 70.0 °
Period: 91.7 minutes
Semi major axis: 6737 km
RCS: Unknown
Launch date: September 14, 2021
Source: United States (US)
Launch site: AIR FORCE WESTERN TEST RANGE (AFWTR)
aabbcc
Your satellite tracking list
Your tracking list is empty




NASA's NSSDC Master Catalog

Two Line Element Set (TLE):
1 49181U 21082BD  21290.58334491  .00016743  00000-0  14197-3 0  9993
2 49181  70.0012  32.7302 0004008 287.9491 181.2761 15.69708622  6529
Source of the keplerian elements: AFSPC